Tracking 28126 objects as of 2-Oct-2023
HD Live streaming from Space Station
objects crossing your sky now

SL-8 DEB

Track SL-8 DEB now!
10-day predictions


NORAD ID: 39691
Int'l Code: 1991-009DE
Perigee: 1,478.1 km
Apogee: 1,703.5 km
Inclination: 74.1 °
Period: 117.8 minutes
Semi major axis: 7961 km
RCS: 0.0212 m2 (small)
Launch date: February 12, 1991
Source: Commonwealth of Independent States (former USSR) (CIS)
Launch site: PLESETSK MISSILE AND SPACE COMPLEX (PKMTR)

Note: This is SATELLITE DEBRIS
Your satellite tracking list
Your tracking list is empty




NASA's NSSDC Master Catalog

Two Line Element Set (TLE):
1 39691U 91009DE  23272.24805633  .00000788  00000-0  73295-2 0  9995
2 39691  74.0621  18.7187 0141506 254.2237 104.3156 12.22041703398860
Source of the keplerian elements: AFSPC